sat.trackr.live / text

‹ back to catalog

STARLINK-6035

NORAD 56323 · 2023-058G

PAYLOAD ACTIVE UNKNOWN

§ Identity

Operator
Country
US
Launch date
2023-04-27
Launch site
AFWTR
Launch vehicle
Mass (kg)
RCS (m²)

Purposes: comms

External: N2YO · Heavens-Above · Gunter

§ Orbital elements

Epoch: 2026-05-25T05:36:28.362240Z

Period
95.64 min
Inclination
97.4490°
Eccentricity
0.0001490
Mean motion
15.05659605 rev/d
Perigee alt
548.4 km
Apogee alt
550.5 km
Semi-major
6,927.6 km
B*
1.7017e-4
RAAN
145.2160°
Arg perigee
94.3317°
Mean anomaly
265.8080°
Rev number
16,928

§ Raw data

STARLINK-60351 56323U 23058G   26145.23366160  .00002398  00000+0  17017-3 0  99922 56323  97.4490 145.2160 0001490  94.3317 265.8080 15.05659605169281

JSON: /api/v1/satellites/56323 · /tle

For live sub-satellite position, see the globe view (requires WebGL).

§ Visibility from observer

Set your observer location to see the next 7 days of passes ≥ 10°. The values pass through the URL so the page stays shareable.

No JS? Fill the form by hand. The geolocation button needs JavaScript.